Theta_e
353 354 352 350 350 363 353 345 318 326 322 313 314 316 315 326 329 323 323 330 320 333 333 331 330 330 328 326 326 328 330 326 324 313 311 331 343 347 349 351 354 355 354 356 359 360 361 363 364 363 364 365 364 362 361 361 361 362 362 362 362 362 361 360 359 360 361 362 362 361 362 362 363 362 362 362 362 363 363 363 363 364 364 363 363 365 365 365 364 363 364 364 363 363 363 363 364
351 349 349 349 349 356 336 341 322 319 319 314 315 318 320 326 326 321 322 326 324 329 330 330 331 332 332 332 330 330 328 331 332 330 337 342 346 347 350 353 354 352 354 357 359 360 361 363 364 363 365 363 362 362 361 361 361 360 361 361 361 361 360 360 359 359 361 362 362 362 363 363 362 362 363 363 362 363 363 363 364 364 364 363 363 364 366 366 365 365 364 363 363 363 362 363 363
348 345 346 350 353 349 343 340 316 316 312 309 313 320 326 322 321 323 329 328 328 329 331 330 331 331 329 330 325 325 321 334 334 336 336 346 341 343 351 352 352 352 355 357 359 360 360 362 364 364 364 364 363 363 361 361 361 361 360 361 361 361 361 360 360 361 362 362 362 362 363 363 362 362 362 363 362 363 362 363 363 364 363 362 362 364 366 366 365 364 365 364 364 362 362 363 363
348 348 354 355 339 349 330 327 321 316 311 313 316 323 324 321 322 328 330 329 330 330 329 326 325 332 329 325 326 331 329 332 336 336 335 339 340 347 350 350 353 354 355 357 359 359 359 363 363 363 363 363 363 362 362 362 361 361 360 360 361 361 361 360 359 358 360 362 362 362 362 363 362 362 362 362 362 362 362 363 364 364 363 363 363 363 366 365 365 364 364 364 364 363 362 363 364
344 349 355 351 340 328 328 324 322 321 312 315 314 323 326 323 324 329 330 331 330 329 328 327 326 331 332 330 332 326 327 337 337 339 338 341 348 349 350 351 353 352 353 357 359 359 361 364 364 364 364 364 363 363 363 362 361 361 360 359 360 361 360 359 359 359 360 362 361 362 362 362 362 362 363 363 362 362 362 362 362 362 362 363 363 364 364 363 364 364 365 363 363 363 364 364 364
344 355 361 355 334 343 333 321 319 318 323 323 318 318 324 326 329 329 328 330 331 332 329 325 322 323 325 330 334 329 336 328 338 338 339 339 347 350 351 354 351 352 355 358 359 359 361 365 364 364 364 364 364 364 363 363 362 362 360 360 360 361 360 358 359 358 359 360 361 361 362 362 362 363 363 363 362 361 363 362 362 362 363 362 363 364 362 363 363 364 364 363 363 363 362 363 364
344 351 348 349 341 342 320 318 319 321 326 331 322 322 323 329 330 330 328 329 330 328 329 325 328 326 323 330 334 337 340 339 336 337 341 344 348 350 351 350 352 353 355 357 358 360 361 365 364 364 364 363 363 364 363 363 363 362 361 360 360 360 359 359 358 357 358 360 361 362 362 362 361 361 362 362 362 361 362 362 362 363 364 363 363 364 364 364 364 364 363 362 363 363 363 364 364
355 342 339 331 325 329 320 322 322 324 326 331 330 327 330 332 334 335 328 326 323 323 326 328 328 325 324 334 324 336 341 341 340 343 344 345 346 348 348 349 350 352 355 357 359 361 366 364 364 363 363 363 363 362 363 363 363 362 361 361 360 358 359 359 359 360 359 359 359 360 361 361 362 361 361 361 361 361 361 362 362 363 364 364 363 363 363 363 364 364 363 363 364 364 364 363 364
354 346 344 331 321 326 321 319 322 330 331 329 329 335 338 336 335 331 332 328 327 326 325 327 329 323 324 327 327 334 338 343 345 348 345 344 345 347 347 348 352 355 357 359 360 361 361 364 363 363 364 363 363 363 362 363 362 361 360 360 359 358 360 361 360 360 359 358 359 360 360 361 361 361 360 361 362 362 361 361 362 363 363 363 361 362 363 363 363 363 362 363 364 365 364 364 364
344 343 328 327 326 317 319 320 320 326 328 332 332 334 337 336 329 329 330 326 325 325 327 331 331 324 327 323 327 332 335 343 344 342 343 345 347 348 348 350 353 355 356 358 360 361 361 366 363 363 363 363 362 361 362 362 362 361 359 359 358 359 360 361 361 359 359 359 359 359 359 359 361 360 361 360 362 362 361 361 362 362 361 362 362 363 362 362 363 362 364 364 364 365 363 363 364
334 343 341 324 318 317 315 317 323 328 328 332 333 337 340 340 332 332 333 329 328 326 328 331 326 325 326 326 327 337 340 342 341 340 344 346 347 347 348 349 352 355 355 358 359 360 361 361 366 364 363 362 361 361 361 361 360 361 360 360 360 360 359 359 359 359 359 359 359 360 359 359 359 360 362 362 362 361 361 361 362 362 362 363 363 363 363 362 362 363 364 365 365 365 365 364 363
331 332 330 317 317 317 318 319 323 326 329 331 329 333 338 339 332 327 329 326 325 326 326 330 325 330 324 325 326 335 339 340 343 345 348 349 347 356 349 350 352 355 356 357 359 359 360 360 361 363 363 362 362 362 362 361 361 361 361 361 360 359 359 359 360 359 358 359 360 359 359 359 359 361 360 361 361 361 361 360 361 362 362 362 362 363 363 362 363 364 365 365 365 364 365 365 363
334 333 326 323 320 324 324 322 324 326 325 327 331 335 340 339 333 329 330 330 327 325 327 331 331 330 322 324 331 335 336 340 344 346 348 348 348 351 351 351 353 354 357 359 357 357 357 357 359 359 361 363 361 361 361 360 359 360 361 360 360 359 359 359 361 360 359 359 359 359 359 358 358 361 361 360 360 361 361 361 361 362 362 362 362 362 363 363 363 364 364 365 364 364 363 364 364
334 333 330 319 328 323 322 321 322 322 321 328 332 338 338 338 340 333 334 332 329 326 330 333 332 330 325 328 329 332 336 343 344 347 348 348 348 348 349 350 349 351 355 356 356 356 356 357 358 357 357 357 357 360 361 360 359 359 360 360 360 359 359 360 360 361 360 359 359 359 359 358 360 360 360 360 361 361 361 361 362 361 361 362 363 363 363 363 364 364 364 365 364 364 363 363 363
337 339 331 324 321 322 325 316 318 322 321 328 335 335 339 344 339 336 331 333 328 332 334 336 333 328 320 325 325 332 338 343 346 347 347 347 347 347 348 348 348 349 352 355 355 356 356 357 358 355 355 354 354 354 355 357 359 359 360 360 360 360 360 360 360 360 360 360 360 360 359 359 362 362 362 361 361 361 361 361 361 361 361 362 363 363 363 363 363 364 364 364 364 364 364 363 362
338 335 330 320 319 318 321 322 324 322 322 329 337 341 337 342 345 334 335 337 329 333 333 326 334 328 329 329 331 337 341 343 345 346 345 345 345 346 347 348 349 350 352 354 355 357 356 353 352 352 353 353 354 354 355 355 359 361 360 360 360 360 361 360 360 360 359 360 360 360 360 359 358 358 362 359 361 361 361 359 361 360 362 363 362 363 363 362 363 364 364 364 363 363 363 362 363
339 337 322 320 315 318 322 323 323 318 327 332 339 336 333 336 343 341 344 341 328 328 330 331 329 335 331 333 337 340 341 344 346 343 344 343 343 342 344 346 348 349 352 353 353 353 352 351 350 349 352 353 354 354 354 355 357 360 359 359 360 360 360 360 360 360 359 360 360 360 358 357 356 356 358 357 360 359 361 362 361 361 361 362 362 363 363 364 363 364 364 364 363 362 363 361 361
333 326 322 318 320 319 324 323 326 336 328 333 334 337 335 332 337 342 341 337 339 330 328 330 332 334 336 337 339 340 340 340 341 341 341 340 341 340 340 344 346 346 349 351 353 353 352 351 350 351 351 353 354 355 356 356 357 358 354 354 356 358 359 359 358 357 360 356 359 357 356 357 355 356 357 360 358 359 359 362 361 360 362 362 362 362 362 363 364 364 365 364 363 362 361 358 361
329 327 323 318 324 326 331 330 330 331 330 336 338 341 336 336 338 340 333 332 329 326 324 327 330 333 336 337 338 337 338 338 340 340 339 339 339 339 339 343 345 346 348 351 353 354 354 354 354 353 353 354 355 355 356 356 355 354 354 354 356 359 359 358 356 357 354 355 356 356 357 355 356 358 357 359 360 361 360 361 361 361 362 362 362 362 362 362 363 364 363 363 363 364 361 360 360
334 328 320 320 330 331 334 335 333 335 336 336 334 335 334 334 334 345 332 328 332 323 321 327 327 328 331 334 336 336 338 338 339 339 339 339 340 339 339 342 344 345 348 350 352 353 351 352 354 355 355 356 355 355 356 355 355 355 355 355 354 354 355 357 355 353 355 355 356 355 355 356 357 356 360 361 361 357 358 362 362 362 363 362 362 361 361 361 363 365 365 364 367 367 360 361 360
333 331 323 326 333 329 333 334 334 337 340 338 335 336 334 336 335 337 333 328 328 324 328 327 327 329 330 333 334 336 337 337 338 339 339 339 341 341 340 342 345 347 348 350 353 351 350 350 351 353 354 355 354 355 354 353 356 356 356 355 354 354 355 353 349 350 353 355 356 355 356 357 356 356 355 356 355 356 355 355 355 355 354 353 359 352 355 358 359 355 357 361 358 360 361 360 359
334 333 333 332 334 329 333 335 337 337 342 340 335 332 332 339 338 335 333 325 324 325 329 330 331 331 331 332 334 335 336 336 337 337 338 339 340 339 340 344 348 348 349 347 349 351 350 350 350 351 353 354 353 352 351 356 357 354 354 355 353 354 354 352 349 350 352 353 355 356 357 355 355 355 355 354 355 355 354 354 355 354 353 352 356 354 356 355 354 355 357 358 358 360 359 359 358
326 334 334 335 333 330 334 334 334 336 335 337 333 335 339 335 334 337 337 334 335 331 331 332 332 333 334 335 334 334 334 334 336 337 338 339 339 339 340 345 346 347 348 348 350 351 352 350 349 350 350 351 352 353 355 355 354 355 355 355 352 352 354 353 351 351 352 354 357 358 355 354 353 352 353 353 353 354 354 354 353 353 350 350 354 352 354 355 355 355 355 355 356 357 359 359 357
334 329 334 334 336 333 336 335 338 339 336 334 336 340 336 335 326 335 335 338 340 331 332 332 333 334 334 333 334 334 334 334 335 337 338 338 338 339 341 343 346 348 347 348 349 351 354 352 352 353 352 352 352 355 354 354 354 354 355 358 355 358 355 354 353 354 356 355 357 359 359 354 353 352 352 352 353 354 354 354 352 352 352 352 353 355 355 355 354 353 354 354 356 356 356 356 355
331 329 335 337 337 337 338 339 338 338 337 337 339 335 333 336 333 334 331 334 332 331 332 332 333 333 333 333 333 333 333 334 335 336 338 338 339 340 341 343 345 347 347 348 349 350 352 354 355 355 355 355 355 355 353 353 354 353 357 357 354 360 352 354 355 355 353 355 355 356 360 353 352 353 352 352 352 352 353 352 352 352 353 351 352 354 354 351 352 351 351 351 352 354 353 350 343
334 333 337 337 336 338 337 337 337 338 339 340 340 335 337 340 339 331 332 335 332 332 331 332 332 332 332 333 333 333 332 333 335 335 337 338 339 339 341 341 343 346 349 349 349 350 352 355 355 354 354 354 353 355 353 353 354 354 355 355 356 358 353 355 356 354 354 355 354 354 356 355 352 352 352 351 351 352 353 352 352 352 352 352 352 350 352 351 350 349 349 349 349 349 350 346 350
337 335 337 335 336 338 341 336 337 339 338 340 333 332 335 338 337 322 334 333 332 331 330 331 330 330 331 332 333 332 332 332 333 334 337 337 337 337 339 340 342 346 350 349 350 351 354 354 353 353 353 355 353 352 353 354 356 352 355 354 354 355 358 360 357 355 356 356 356 356 356 358 354 352 352 353 359 355 354 352 351 353 352 352 353 350 352 352 351 349 347 347 348 348 349 346 349
336 336 335 335 337 337 338 337 337 343 337 338 335 332 337 338 337 324 329 332 333 329 329 329 329 329 331 331 331 331 331 332 333 334 333 333 333 335 337 338 342 346 347 348 350 353 353 354 353 353 353 353 352 351 355 354 353 353 355 352 353 354 357 356 356 357 359 355 358 358 360 358 357 354 356 355 354 352 351 352 350 350 348 351 352 351 351 352 351 350 350 349 348 357 352 350 348
334 335 327 331 335 332 336 334 337 341 334 338 340 332 328 328 327 332 332 333 331 329 328 328 328 329 329 330 330 330 330 330 331 331 333 333 335 336 337 342 344 346 348 349 350 352 351 353 353 353 352 352 349 350 352 351 351 355 353 351 353 355 354 354 353 355 358 357 358 359 360 361 360 354 354 354 355 352 353 352 350 349 349 351 353 352 351 349 348 347 348 353 352 353 353 349 353
334 332 329 327 325 325 332 337 340 338 336 341 340 313 317 324 331 336 331 331 330 328 326 327 328 328 328 328 329 329 330 330 330 330 332 333 334 336 340 343 346 346 347 349 352 352 353 354 354 353 354 353 350 351 353 350 351 354 352 353 355 352 352 355 354 356 359 359 360 360 361 358 356 354 352 353 353 350 350 350 349 349 351 352 352 351 351 350 348 348 350 352 359 354 348 347 349
328 329 330 319 317 317 331 335 337 332 337 340 338 314 318 325 330 335 331 331 328 325 326 326 327 327 327 328 328 328 330 330 330 332 333 333 335 337 343 344 346 347 347 347 348 350 352 351 352 351 354 353 356 355 354 353 354 354 352 351 352 352 353 354 354 357 357 359 358 357 360 359 358 358 353 350 352 350 349 350 350 349 352 352 352 351 353 350 350 351 355 353 353 349 347 350 349
326 318 314 321 317 319 329 336 336 327 334 340 336 316 319 323 328 337 331 331 330 326 326 326 326 327 327 327 328 328 329 331 331 332 332 333 335 341 344 344 346 347 347 346 348 350 350 350 352 351 352 351 351 354 352 352 352 352 353 356 353 353 352 353 354 355 357 358 357 356 360 359 357 356 356 354 350 350 350 349 350 350 350 352 352 353 354 352 352 355 362 359 353 352 357 345 344
323 318 314 315 319 320 322 331 338 338 334 338 333 319 321 321 328 334 331 331 330 326 325 325 326 327 327 327 328 328 328 329 329 329 330 332 337 344 345 345 346 347 348 348 348 349 350 352 352 350 350 350 351 352 352 355 353 352 353 354 353 351 351 352 353 353 356 356 358 356 360 357 354 354 353 354 349 349 349 349 351 348 352 353 351 351 350 354 353 356 360 360 357 354 355 351 345
315 319 313 320 315 320 316 329 334 336 333 328 329 325 326 324 327 331 331 334 329 325 325 326 326 327 327 327 328 327 327 327 327 327 329 335 338 344 345 349 346 347 350 350 350 351 351 351 350 349 350 352 352 354 354 353 351 352 352 351 355 350 349 351 351 353 354 356 358 359 360 355 356 353 351 353 349 350 348 350 350 350 352 351 349 351 351 356 356 359 355 358 361 357 355 353 342
311 313 313 315 319 321 318 319 327 333 332 326 326 326 329 326 327 328 331 335 328 325 326 326 326 326 326 327 327 327 326 327 327 329 331 336 339 342 344 345 346 348 349 351 351 351 351 353 352 353 351 353 354 355 354 352 353 354 351 351 351 347 348 349 351 351 353 356 357 360 362 360 355 352 351 352 348 349 349 348 346 349 353 351 348 350 355 362 362 360 359 358 363 362 356 354 348
317 318 315 315 313 316 317 323 332 331 326 324 324 321 325 327 325 328 331 331 327 327 327 327 327 327 326 327 327 327 326 327 329 332 336 337 338 343 345 346 347 347 348 349 351 351 353 354 353 352 352 354 355 355 353 351 351 348 347 350 347 349 348 350 349 350 353 355 358 360 362 363 359 352 350 354 349 350 347 346 346 349 351 349 349 353 353 353 358 360 361 363 360 359 357 355 351
321 319 316 315 316 317 323 326 332 334 326 323 324 325 325 325 329 334 332 335 328 327 325 326 326 326 326 326 326 326 326 328 332 333 336 337 340 344 346 346 347 347 347 350 351 351 353 353 354 352 353 355 354 351 350 349 346 346 348 347 346 347 348 349 348 348 354 355 357 360 362 363 363 358 354 353 356 351 347 349 347 347 349 349 351 360 362 360 361 364 364 366 363 355 355 345 352
319 317 316 315 319 315 324 324 329 330 324 320 324 325 324 326 330 333 333 333 327 325 325 325 326 326 326 325 325 326 328 331 333 332 336 337 340 343 344 345 349 345 348 351 351 352 353 353 354 354 355 355 355 352 352 350 350 347 346 345 345 347 347 346 344 346 352 356 359 360 362 362 363 363 366 365 367 363 358 362 363 357 353 358 370 369 362 370 366 362 361 362 365 359 349 350 349
318 317 317 315 317 322 324 325 326 329 326 316 317 320 321 327 329 334 333 332 333 334 335 330 328 326 326 326 325 326 329 329 331 332 336 336 339 344 346 347 347 347 349 351 352 353 352 352 354 355 355 355 355 358 357 351 351 350 348 347 345 346 349 350 346 350 354 356 357 361 363 362 364 362 364 369 367 366 365 363 365 365 362 367 365 363 367 363 367 360 360 356 353 355 356 356 351
310 315 312 310 318 316 313 323 326 325 325 318 319 318 320 326 331 332 335 336 335 338 340 337 335 335 327 326 326 327 328 329 330 331 333 336 337 344 347 347 347 348 349 350 352 351 352 354 354 355 355 357 357 359 361 356 353 351 352 348 348 348 347 350 350 351 352 353 355 362 362 363 365 361 364 367 363 367 370 365 363 365 366 369 366 363 366 365 364 360 360 362 359 352 350 345 360
311 316 315 314 317 317 316 319 323 323 325 325 319 319 320 323 323 324 331 338 337 337 337 334 335 337 337 330 328 329 329 329 329 330 333 335 336 343 346 347 348 348 349 350 351 353 355 354 355 355 356 357 358 362 360 358 359 356 353 350 350 351 351 348 347 347 350 354 355 357 359 363 365 360 361 363 364 364 366 369 368 364 366 370 367 364 363 361 361 362 360 360 356 355 352 353 349
307 313 320 320 321 319 322 322 319 316 316 323 318 307 309 320 322 322 325 329 332 335 332 332 332 334 335 328 328 329 332 331 330 330 332 335 337 344 346 347 348 349 349 350 352 354 355 355 356 357 358 358 358 360 361 360 360 355 349 346 343 344 342 344 342 344 348 350 351 356 359 361 363 362 364 367 363 366 365 367 367 362 363 365 364 364 365 359 360 358 361 360 359 362 357 350 348
303 313 323 323 321 321 322 321 317 309 307 317 324 308 304 317 318 322 324 326 328 335 332 332 332 333 333 329 328 328 330 331 332 333 334 336 339 344 345 345 347 348 350 351 351 354 355 355 357 358 359 357 359 361 360 360 358 357 352 350 348 347 344 346 348 346 347 349 352 354 355 359 361 361 362 364 362 366 364 367 366 367 364 364 371 364 353 355 359 359 365 359 361 363 359 351 352
304 322 323 322 321 322 322 320 317 313 322 322 322 318 306 307 316 323 326 325 326 329 331 331 331 334 333 330 329 328 330 331 331 332 334 337 341 343 343 345 346 348 350 351 351 354 353 355 357 358 359 359 360 360 359 359 356 356 353 351 352 350 348 347 350 347 348 352 350 354 354 357 359 361 361 363 364 364 364 363 369 368 371 365 372 362 358 362 368 367 366 366 367 364 359 355 353
315 323 323 321 323 322 322 320 316 316 314 307 315 320 308 306 316 324 326 321 324 326 328 330 330 332 333 329 331 329 331 331 332 332 334 339 340 343 345 345 346 348 350 350 352 354 355 356 358 358 358 359 360 360 359 360 359 356 354 352 351 352 352 351 356 353 349 355 350 352 354 356 359 363 362 363 363 362 368 363 364 369 363 365 369 362 363 362 366 363 363 365 359 360 362 362 355
320 323 324 324 326 324 321 317 315 314 310 304 310 316 305 304 314 318 324 321 320 324 328 330 331 332 333 330 330 331 331 331 333 333 337 340 341 342 345 346 345 348 349 352 353 355 356 357 358 357 356 358 360 359 360 360 359 359 355 351 351 351 353 352 349 348 350 353 350 351 354 355 358 361 362 361 362 362 363 365 365 363 364 363 361 359 360 363 365 363 365 364 363 361 367 366 361
318 323 319 320 320 321 319 316 314 310 302 306 313 315 311 302 312 316 316 318 323 325 328 331 332 333 333 332 330 332 332 332 332 334 338 341 343 344 343 344 344 346 349 353 354 354 356 356 357 356 357 359 360 359 359 360 358 358 357 352 354 352 350 350 348 351 352 352 350 352 353 355 356 358 361 361 361 362 362 365 361 360 361 370 366 364 361 361 363 364 364 366 364 362 359 362 363
312 308 308 305 313 315 312 311 313 301 298 309 316 314 314 301 306 317 322 325 326 327 326 329 331 330 331 332 332 332 332 332 333 334 337 341 341 342 342 341 342 345 350 353 355 355 355 356 356 355 356 358 359 360 360 360 358 360 359 357 355 352 354 354 350 351 351 352 351 351 355 354 356 356 358 358 359 360 363 362 367 364 365 363 365 366 357 358 362 365 364 361 364 366 368 364 363
308 306 305 300 300 302 296 304 299 298 299 310 317 315 310 307 314 319 323 324 326 329 329 330 332 331 330 332 333 333 333 333 333 333 336 339 340 340 340 340 340 348 349 353 355 355 355 356 356 355 355 358 358 359 360 359 358 358 359 358 358 356 354 354 353 352 353 352 353 353 354 352 356 355 356 356 356 357 362 360 362 365 362 365 368 364 362 362 363 367 368 364 363 359 364 364 363
305 303 301 296 294 295 291 296 300 302 309 316 314 318 310 314 317 324 323 326 328 330 331 333 333 332 331 332 334 334 334 334 334 334 335 337 339 339 339 340 342 347 349 351 353 354 355 356 356 356 356 358 357 358 360 359 358 360 362 360 359 359 355 355 355 354 354 353 356 354 356 354 355 357 355 354 355 357 361 361 368 366 363 366 368 366 366 363 365 366 367 366 362 362 364 364 357
305 307 303 300 299 299 292 297 294 298 301 309 317 310 307 308 312 325 328 328 330 332 332 334 335 335 333 334 337 338 333 334 335 334 335 337 339 339 339 343 342 345 348 350 353 354 355 355 357 356 356 357 357 357 358 359 360 360 363 364 361 360 358 356 355 356 354 354 357 355 354 356 356 357 355 356 359 359 360 361 364 364 365 365 365 366 367 365 367 363 367 362 365 365 363 364 363
305 307 306 300 298 307 300 305 303 302 302 304 307 307 316 315 325 330 330 328 330 332 332 333 334 337 337 334 335 336 334 334 335 333 334 337 338 339 341 342 342 343 346 348 350 352 353 355 357 357 357 357 357 357 357 359 360 361 362 362 361 362 364 359 358 362 355 355 355 355 355 356 356 355 359 359 361 360 360 360 362 364 364 365 366 364 364 362 364 363 362 366 361 369 365 362 358
303 305 298 300 307 309 306 309 312 309 303 300 312 310 317 323 325 325 327 329 330 333 331 333 334 337 337 335 335 334 337 333 334 334 334 338 338 339 342 342 342 343 344 346 349 351 353 355 356 357 357 357 358 358 358 359 359 361 359 361 361 361 361 359 359 360 356 356 357 359 359 360 359 361 360 360 361 360 360 360 359 361 364 364 363 364 363 364 361 362 366 364 363 366 364 365 365
305 299 300 309 310 312 306 300 304 301 295 301 308 305 308 310 305 324 324 323 326 326 330 332 334 335 334 335 335 334 335 334 334 335 336 338 338 340 341 343 343 344 344 347 350 352 354 355 356 356 357 355 358 357 358 358 358 360 359 359 359 359 359 358 357 357 356 358 359 360 360 360 357 363 361 359 361 362 362 370 359 361 364 364 364 363 364 364 359 361 362 361 363 364 365 366 368
304 302 309 301 297 297 307 304 296 296 296 297 303 308 309 309 310 318 319 320 322 326 327 329 331 331 332 333 335 335 338 338 333 334 337 337 338 339 339 343 344 345 346 348 350 353 354 355 356 357 356 356 357 358 358 359 360 361 360 358 358 357 357 356 357 359 358 358 357 358 357 360 359 359 360 362 359 359 363 363 362 364 362 363 364 362 362 363 361 360 362 360 363 363 363 364 365
309 309 303 308 302 301 300 303 304 302 298 299 299 304 301 313 314 321 320 322 323 325 330 328 330 332 332 333 335 335 336 335 336 335 338 338 338 339 339 341 344 344 345 347 349 353 353 354 356 355 357 357 356 356 357 357 360 359 359 360 359 359 359 356 358 358 357 356 357 356 357 358 358 360 358 364 359 359 363 361 364 362 363 363 363 363 362 364 361 360 361 360 361 363 361 359 360
299 300 298 301 307 310 308 309 304 302 298 297 297 297 305 315 324 324 323 324 326 327 330 330 332 334 335 336 336 338 336 336 335 336 336 337 338 339 341 340 344 345 347 347 348 351 352 353 354 355 355 355 355 355 356 357 358 357 357 356 358 359 360 357 356 357 356 356 357 359 356 357 358 358 358 359 358 358 361 361 361 361 361 360 360 360 361 362 361 359 360 364 365 362 360 360 362
299 297 297 299 299 300 296 298 309 306 301 295 298 297 308 317 327 325 324 326 328 332 332 331 333 334 335 336 337 338 339 336 338 336 336 336 338 338 343 342 344 345 345 345 346 349 350 351 353 355 354 353 354 353 355 355 356 356 356 356 358 358 358 356 354 355 356 355 356 358 357 359 359 357 358 357 359 358 360 360 359 359 358 359 361 361 360 363 360 361 360 363 367 363 361 361 361
Wind_Speed
5 4 4 5 4 1 1 1 1 1 1 3 1 3 2 4 3 4 4 3 5 2 3 6 10 9 7 10 14 14 15 3 3 5 6 3 10 12 11 11 13 11 10 8 6 4 5 7 10 12 13 13 12 12 13 13 13 13 12 12 12 12 12 11 10 9 9 12 10 10 12 13 13 12 11 12 15 15 15 15 14 15 15 16 16 17 17 16 15 15 15 14 13 13 13 13 13
3 4 5 5 3 1 1 0 2 1 2 3 3 0 4 3 2 4 5 3 3 4 5 13 15 17 16 11 10 20 17 10 10 8 7 10 12 9 12 14 13 13 10 9 7 6 6 6 10 13 13 13 13 13 13 14 14 13 13 12 12 12 11 10 10 11 10 11 11 11 12 12 12 13 12 13 13 14 14 14 14 15 15 15 15 16 16 15 14 15 15 14 13 13 13 14 14
4 4 5 5 2 1 1 1 2 2 3 5 1 1 2 3 3 4 4 4 9 7 9 11 15 13 15 15 17 15 6 8 19 13 9 13 13 9 14 13 12 12 13 9 8 7 5 5 11 14 14 12 12 13 14 14 14 14 13 14 13 12 10 9 10 10 9 10 11 12 12 12 12 13 14 13 13 14 15 14 14 15 15 15 14 15 15 13 14 15 15 14 14 14 12 13 13
3 3 1 1 2 1 1 2 2 2 3 2 1 0 2 3 3 5 7 12 9 8 8 12 9 8 17 19 13 19 11 9 11 13 9 10 7 14 13 14 13 11 10 8 8 7 6 10 12 12 12 11 10 11 12 13 13 14 13 13 11 11 9 8 9 8 6 9 11 12 13 13 12 13 14 14 13 13 15 15 14 14 14 14 14 14 13 13 13 13 14 15 17 16 13 13 14
1 2 2 2 0 2 2 2 2 0 3 0 0 6 7 3 6 6 6 8 10 11 10 11 10 9 11 11 7 7 9 13 12 9 9 9 14 14 14 15 12 11 10 9 8 7 8 14 12 12 11 11 11 11 11 12 12 14 14 13 12 11 10 8 8 9 8 10 10 11 12 13 13 13 15 14 13 13 14 14 15 14 14 14 14 13 13 13 12 13 13 14 15 16 15 14 14
2 3 4 2 1 1 0 1 2 3 2 3 3 4 5 4 3 6 10 10 7 7 12 12 10 9 8 10 7 12 15 10 12 11 12 14 19 18 17 14 12 12 11 9 8 6 8 12 12 11 11 11 11 12 11 11 12 12 12 11 12 12 11 8 9 10 9 5 10 11 12 13 14 14 15 15 13 14 14 14 14 14 14 14 14 12 13 13 11 11 12 13 14 15 14 14 13
4 2 3 1 2 1 1 1 1 1 1 3 5 3 4 3 4 6 11 9 12 14 11 14 15 15 11 8 11 9 10 13 11 13 12 17 18 16 16 12 14 14 13 9 8 8 11 13 13 13 12 12 13 12 12 12 13 12 11 11 12 12 13 12 10 10 7 9 10 11 12 13 14 15 15 16 15 14 15 14 14 14 13 13 14 14 13 13 12 11 12 13 13 14 14 13 12
3 3 2 2 1 2 1 1 2 1 1 3 2 6 4 5 4 2 10 10 9 8 11 9 10 15 16 11 9 13 14 9 14 17 21 17 17 18 15 15 15 14 12 9 7 7 13 15 14 13 13 13 12 13 13 13 14 13 12 12 11 11 13 11 11 9 9 8 4 10 12 12 14 14 15 15 15 14 14 14 14 14 13 13 14 15 13 12 12 12 13 13 12 13 13 12 12
3 4 1 1 1 0 1 2 1 1 2 2 5 8 12 4 9 6 2 8 11 12 16 16 11 16 10 14 10 13 13 15 16 18 18 19 16 15 13 15 15 13 13 10 8 7 8 13 14 13 13 13 12 12 13 14 13 13 12 12 12 10 11 13 11 10 10 9 11 9 11 13 13 14 14 15 14 13 13 14 13 13 14 14 14 15 13 12 12 13 12 12 12 12 12 12 12
3 4 3 2 1 3 2 1 2 1 1 3 7 5 2 4 8 2 4 10 11 13 13 15 9 19 15 17 15 12 13 18 17 15 16 17 17 16 16 17 16 16 12 10 8 7 7 14 15 14 13 13 13 12 13 13 13 13 13 12 12 12 11 12 11 11 11 11 11 10 10 12 13 14 14 14 14 13 13 13 13 13 14 13 13 15 14 10 12 12 12 11 11 11 11 11 11
2 3 3 4 4 3 1 0 1 1 2 4 4 4 5 8 8 4 8 4 14 17 19 18 15 19 14 11 9 11 18 17 16 17 17 18 17 16 16 17 15 14 13 12 9 8 7 8 15 14 14 13 12 12 12 13 14 13 13 12 11 11 11 10 11 11 11 11 12 12 11 12 12 14 14 14 13 13 12 13 12 13 13 13 12 13 13 13 12 11 10 10 10 10 10 11 11
1 2 1 4 1 1 1 2 1 2 3 2 3 3 2 5 10 5 8 4 16 17 15 9 10 15 15 14 9 12 16 16 14 14 16 17 13 9 18 14 15 13 14 13 11 8 8 8 7 12 15 14 13 13 13 13 13 12 13 12 10 11 11 11 11 11 11 12 12 11 10 13 12 12 13 14 14 13 12 13 12 13 14 14 14 13 12 12 11 10 10 9 9 10 9 9 10
3 2 1 1 0 0 1 1 1 2 1 3 3 3 3 3 7 4 5 5 14 16 12 13 17 11 15 10 9 14 15 15 16 17 16 16 16 7 12 14 16 15 13 12 11 11 10 7 7 8 11 16 14 14 14 13 10 10 12 11 11 12 12 11 12 11 12 12 12 11 11 14 14 13 13 14 14 13 12 13 13 13 13 12 12 12 12 11 11 10 9 9 9 9 8 7 8
6 5 5 1 2 0 2 1 1 3 3 2 3 4 4 1 8 8 3 5 5 10 16 17 12 12 16 12 10 10 12 12 17 17 13 14 16 16 15 12 15 14 13 12 10 10 8 7 7 7 7 6 6 11 14 14 12 12 8 10 11 11 12 11 12 13 12 13 12 11 12 13 13 14 14 14 14 13 13 13 13 13 12 12 11 11 11 10 10 10 9 8 8 8 7 6 6
5 3 3 1 1 0 3 6 7 5 5 4 3 1 1 1 7 8 6 5 9 15 14 11 13 11 11 14 11 11 12 15 16 17 16 15 16 18 15 13 13 12 11 11 10 10 9 7 8 7 7 6 5 4 5 10 12 9 11 11 12 12 11 11 12 12 13 13 13 13 14 12 12 14 14 13 13 14 13 13 13 13 13 11 10 10 10 10 10 10 9 7 7 7 6 5 5
8 4 2 3 2 1 3 2 5 3 4 6 4 3 1 2 3 10 4 9 8 11 13 11 10 4 16 12 16 18 18 17 15 16 15 16 14 16 15 13 11 10 9 9 9 9 8 8 7 6 7 6 4 3 6 7 10 10 10 11 12 12 12 12 13 12 13 13 13 14 14 11 10 9 14 11 13 14 13 9 12 12 12 10 9 9 9 10 9 8 8 6 6 6 6 4 3
8 3 3 2 2 3 3 2 7 6 3 5 5 4 3 1 2 4 4 2 6 12 13 14 10 12 14 14 19 20 19 17 16 17 14 11 11 11 9 9 9 7 4 8 7 8 8 8 7 6 7 7 6 4 4 5 9 11 9 12 12 12 12 12 13 14 12 13 12 13 11 6 5 4 6 5 10 6 10 12 11 12 12 10 8 6 7 7 9 7 6 5 4 3 4 4 2
4 2 2 1 5 8 6 9 9 2 9 7 7 5 3 3 4 1 4 7 3 10 11 13 16 12 15 16 17 16 17 18 16 16 13 10 7 11 10 9 8 7 5 6 9 9 8 6 8 8 7 7 6 5 4 4 5 7 6 5 4 7 10 10 7 6 8 5 12 8 5 5 4 4 4 6 3 6 8 12 11 11 9 7 6 6 7 6 7 5 3 3 2 3 3 1 1
2 3 2 4 4 5 6 5 10 1 7 7 5 4 4 2 1 1 3 6 8 9 14 14 17 19 17 16 15 14 16 16 16 16 15 12 9 11 10 9 9 7 6 5 7 9 6 6 7 8 9 7 6 6 5 4 4 4 4 5 4 7 7 5 4 5 4 5 5 5 5 3 2 3 4 5 3 9 8 11 11 9 7 6 5 5 4 4 3 2 2 0 0 1 1 2 2
6 2 1 2 2 2 7 1 6 4 6 7 8 2 5 2 5 2 4 6 9 8 12 17 19 20 18 16 15 15 15 16 14 14 15 13 11 10 12 13 10 8 7 6 7 6 7 6 6 6 7 6 6 6 6 5 4 3 3 4 4 4 4 3 4 3 3 4 5 5 4 3 2 2 8 10 7 3 5 10 11 9 8 6 5 3 2 2 3 4 2 1 2 3 2 3 3
5 3 2 4 2 2 6 9 5 4 2 6 7 4 2 4 8 2 5 9 10 6 15 19 21 19 18 17 16 14 16 17 15 15 15 13 11 9 10 12 10 9 7 6 6 7 6 6 5 5 6 7 6 6 6 4 3 3 2 4 4 3 3 4 4 3 3 4 5 5 4 4 4 4 4 4 4 4 4 4 5 5 4 4 5 3 3 3 4 3 4 3 3 3 3 4 4
4 3 3 5 2 4 4 10 8 5 1 4 8 8 6 5 6 8 6 4 4 10 16 18 19 18 18 18 16 14 15 15 15 14 15 15 13 10 11 12 12 10 8 6 7 8 8 7 6 5 6 6 6 5 6 6 5 4 4 4 5 4 5 5 4 3 2 3 4 4 5 4 3 3 3 4 4 4 3 4 4 4 3 2 2 2 2 2 2 2 3 3 4 4 4 4 5
5 1 4 7 7 7 7 8 4 6 4 2 9 5 3 5 3 3 3 2 2 18 17 17 17 17 16 14 14 14 14 14 13 14 15 16 14 13 14 13 11 8 6 6 6 7 9 8 7 6 6 6 7 6 5 5 4 4 3 2 4 5 5 6 5 4 3 2 3 5 5 5 4 4 4 3 3 3 4 4 3 3 2 1 1 1 2 0 1 2 2 3 5 4 4 4 4
8 4 2 8 10 10 7 8 4 4 3 2 2 9 3 3 6 4 3 3 4 17 17 16 16 16 15 14 13 14 13 13 13 13 14 14 15 15 15 16 12 9 7 8 6 7 8 9 8 8 7 7 6 6 6 5 4 4 2 3 5 5 5 6 6 4 4 4 4 4 4 5 5 5 4 3 2 2 3 3 2 2 1 1 1 1 2 1 2 2 2 4 5 5 5 5 5
7 5 0 8 8 7 5 4 4 4 2 1 4 3 5 3 3 5 5 4 13 17 17 17 16 15 13 13 13 13 13 12 13 12 11 9 12 14 14 13 13 11 10 8 7 8 8 9 9 8 7 6 6 6 6 5 4 4 4 3 4 6 4 5 6 5 4 4 3 3 3 5 4 5 4 4 3 2 4 3 2 1 0 0 2 2 0 2 2 2 3 4 4 5 5 6 5
2 8 7 7 8 7 6 6 4 4 2 5 1 0 4 1 3 4 8 4 11 17 17 16 16 14 14 13 13 12 11 13 13 12 13 12 13 15 16 14 13 13 11 9 7 7 8 8 8 7 7 7 6 6 5 5 5 4 3 2 4 4 4 5 5 5 4 4 4 3 3 2 4 5 5 5 5 4 4 3 3 2 2 1 0 1 0 1 3 3 4 5 4 5 6 6 2
9 11 8 9 5 6 4 4 2 1 1 4 3 3 1 7 4 2 5 9 13 16 17 15 14 14 13 12 12 12 12 14 12 10 14 12 11 13 14 13 12 12 11 9 7 6 7 9 8 7 6 7 6 7 5 4 4 4 3 3 4 6 5 4 5 5 5 4 4 3 3 3 4 5 5 5 4 5 5 3 2 2 0 0 1 1 2 2 3 4 5 4 5 6 7 7 6
12 13 11 8 6 6 4 5 2 1 2 4 5 2 2 6 2 3 8 10 12 15 16 15 13 12 12 12 11 9 10 11 9 12 11 12 10 12 13 11 15 14 12 11 8 7 8 9 10 8 7 6 6 6 5 5 4 4 3 4 4 5 5 3 4 4 5 4 3 3 3 3 4 3 4 5 4 4 4 2 2 1 0 1 0 1 3 3 3 4 4 5 7 7 5 3 3
14 14 8 5 5 4 1 3 2 1 1 1 2 4 2 2 2 5 7 11 13 14 15 15 14 12 12 11 9 6 9 7 8 8 9 9 10 11 12 14 14 13 9 11 11 9 10 10 10 10 8 7 7 7 6 5 5 4 4 4 5 5 5 4 4 3 3 4 3 2 0 3 3 5 4 5 3 4 4 2 2 1 0 1 2 2 3 3 3 4 6 6 7 1 2 2 3
10 8 8 8 3 2 3 3 1 2 1 2 2 4 3 2 5 3 10 9 13 15 12 13 11 12 11 9 7 8 8 6 9 5 9 7 9 11 15 15 15 12 9 8 9 9 7 7 6 8 10 10 9 8 6 6 6 5 4 4 5 5 4 5 4 4 3 4 2 2 3 4 3 4 5 5 4 3 2 2 1 1 0 1 2 3 3 3 4 4 6 6 5 3 4 4 3
7 6 3 5 5 2 3 2 2 2 1 2 0 5 2 4 6 4 10 9 13 13 11 11 12 12 10 8 6 9 8 6 9 7 11 7 7 11 18 15 13 12 11 10 8 8 9 7 7 6 8 7 10 9 9 8 6 6 6 5 5 4 4 4 4 4 5 3 3 3 4 4 3 3 4 5 3 3 3 3 1 1 3 3 3 3 2 4 3 5 6 4 4 4 4 4 2
6 5 3 2 0 2 4 3 4 5 2 3 2 5 5 6 5 3 9 8 8 11 10 11 11 12 10 6 8 9 9 7 11 10 11 8 8 14 16 14 13 13 15 13 11 9 10 9 8 8 7 7 7 9 8 8 8 7 8 7 6 5 5 4 4 4 5 4 4 3 3 4 4 4 4 3 3 4 4 0 1 3 2 2 3 4 3 5 5 6 4 0 2 4 3 3 3
5 4 5 3 3 1 2 3 3 2 3 1 0 4 5 3 5 3 6 7 8 10 11 10 12 14 11 6 8 7 9 5 10 8 11 6 12 16 14 14 13 12 14 14 11 10 8 8 10 10 9 9 8 8 7 6 6 8 8 8 9 8 7 5 4 4 5 4 4 4 3 4 4 4 3 2 2 2 3 2 1 3 3 2 4 4 5 6 4 5 3 2 1 2 4 5 2
5 6 3 2 5 3 2 1 4 4 6 2 3 2 2 5 7 4 6 5 8 9 11 10 11 10 9 7 9 8 8 6 9 9 9 6 13 18 15 14 14 12 12 11 11 10 9 10 9 9 8 7 6 6 6 7 6 6 7 8 9 8 8 6 6 6 5 5 5 5 5 5 4 2 0 2 1 2 3 3 3 2 2 3 5 4 6 6 5 2 3 4 3 3 4 5 3
7 6 7 2 3 6 4 6 5 5 7 6 5 1 1 5 6 4 4 5 6 6 9 9 11 11 10 7 9 9 8 7 9 9 8 10 14 14 13 15 12 12 10 12 10 9 7 5 7 8 7 7 6 6 6 6 5 3 3 5 7 8 7 6 7 6 5 6 6 7 8 8 7 5 3 5 5 5 4 4 2 3 2 1 4 5 7 4 2 2 1 3 4 3 3 2 4
10 11 9 9 6 7 3 5 3 8 9 6 7 6 5 4 6 4 2 5 5 4 6 7 9 11 10 7 10 9 7 9 6 10 8 9 9 14 15 13 11 10 10 9 11 9 6 7 7 7 6 6 5 5 6 5 4 5 4 4 6 6 7 8 7 6 5 5 5 4 5 7 9 8 3 1 3 2 2 2 2 3 3 2 5 9 5 1 3 2 2 2 5 5 4 2 1
15 11 12 11 8 7 3 5 5 8 5 5 6 7 7 5 4 4 6 1 5 4 6 8 6 9 10 7 11 10 6 9 8 11 10 10 13 15 14 13 12 11 10 10 10 9 8 7 8 8 7 6 6 6 5 5 5 4 3 5 5 5 6 7 8 6 7 7 5 4 4 4 9 14 14 13 12 9 11 11 11 10 6 8 9 6 4 1 1 2 2 2 3 4 3 2 2
16 14 12 10 9 6 5 4 1 5 5 3 1 7 7 7 2 5 4 1 4 9 6 5 8 8 9 7 13 10 5 9 10 8 11 12 13 15 13 12 13 13 10 11 11 10 8 8 8 8 7 6 5 6 5 4 3 5 4 4 4 5 6 6 6 7 8 7 6 5 4 4 4 4 2 1 0 2 7 8 10 15 15 10 5 1 1 0 1 2 2 3 1 2 2 2 4
11 10 10 10 6 5 3 2 6 3 1 3 8 8 2 5 2 1 2 4 2 5 2 2 1 8 6 8 12 8 7 10 8 9 11 11 15 15 12 12 12 13 13 12 11 10 9 8 7 7 7 6 5 5 5 5 4 6 4 4 5 4 4 3 4 6 7 7 6 5 5 4 4 4 4 2 2 1 3 3 4 4 4 1 1 0 0 0 0 2 2 3 5 2 2 1 4
7 9 11 9 11 10 4 2 9 1 2 5 4 4 4 6 3 1 1 2 2 4 2 0 0 2 4 10 11 9 8 12 9 10 11 11 13 14 13 12 11 11 10 11 11 11 9 7 7 7 7 5 5 4 3 5 6 6 5 6 6 5 4 4 4 7 7 7 5 5 4 4 3 3 4 4 2 2 2 2 3 4 3 3 2 1 1 0 1 1 3 2 1 4 4 1 2
9 12 9 10 13 9 7 9 9 4 3 5 6 2 0 4 3 2 1 3 3 3 4 2 4 4 5 7 8 9 9 12 9 10 11 11 12 15 13 12 12 11 10 11 10 10 7 9 8 8 7 5 5 4 4 4 4 4 4 7 6 4 4 5 6 6 6 6 5 5 4 3 3 3 2 3 3 2 2 1 2 3 2 1 2 0 1 1 1 2 2 3 2 0 4 2 2
7 9 18 18 16 13 9 17 14 3 2 4 11 3 5 5 5 6 2 1 2 1 3 3 3 5 3 6 9 10 9 10 11 9 10 12 12 14 15 14 12 11 10 10 10 10 9 8 8 7 5 5 6 5 4 4 3 4 5 7 6 5 5 5 6 7 6 6 6 5 5 3 3 3 2 2 4 2 1 1 1 3 3 1 1 1 2 3 2 2 2 2 1 1 2 5 4
4 5 13 16 13 11 16 12 10 5 6 8 7 5 3 3 8 8 3 3 3 1 4 4 4 4 4 6 7 10 10 10 11 7 10 12 12 15 14 14 13 13 11 10 9 10 10 9 8 8 6 6 5 4 6 5 3 3 5 6 6 6 7 4 4 5 6 6 6 6 6 4 4 4 4 3 4 3 2 1 0 1 4 2 1 1 3 1 0 1 1 1 2 3 4 4 4
5 16 17 16 14 16 17 16 7 4 6 6 5 1 4 1 8 6 6 6 5 4 6 6 6 5 5 5 8 8 11 9 11 8 10 11 12 14 14 12 11 13 13 11 9 11 11 10 8 8 6 6 5 6 6 5 4 4 5 5 5 5 6 5 5 6 6 4 6 7 5 4 5 3 4 3 4 3 3 1 0 1 1 2 2 0 2 1 2 1 1 0 1 3 3 5 2
10 17 20 17 18 17 17 12 7 8 9 2 5 3 2 3 2 8 9 9 8 9 9 9 7 6 4 6 6 8 10 9 10 9 10 11 12 13 12 12 11 13 13 12 10 11 10 9 8 8 7 6 7 7 6 5 4 4 5 5 5 4 4 5 3 6 6 5 7 6 5 5 4 3 5 4 3 4 2 3 1 0 0 1 3 2 1 1 1 2 2 2 3 3 2 1 2
14 15 18 15 14 15 17 7 9 8 3 5 9 8 3 2 3 7 7 9 12 12 12 10 8 7 6 7 6 8 8 9 9 9 11 11 10 12 13 11 11 12 12 12 11 11 10 9 8 9 7 7 7 7 6 6 6 4 4 5 6 5 5 4 4 5 4 6 6 6 4 5 4 3 3 3 3 3 3 2 2 2 3 2 3 3 2 2 2 2 0 1 2 3 2 1 1
10 14 15 13 13 11 8 6 7 5 0 5 12 13 6 2 7 10 12 15 16 11 8 9 8 6 7 5 6 7 6 10 9 9 12 11 12 9 11 14 10 12 11 13 12 11 11 10 9 9 8 7 8 7 6 6 6 4 4 6 5 6 7 5 5 4 4 5 6 5 5 5 4 4 3 3 3 3 3 3 3 3 2 3 3 3 2 2 2 2 0 2 2 1 1 2 4
8 7 5 8 7 4 5 3 4 3 2 6 7 10 8 2 3 7 13 1 8 13 15 14 11 10 9 5 5 8 5 7 9 9 12 11 12 10 9 10 11 12 13 13 12 11 11 10 9 9 7 7 7 7 7 6 6 5 4 5 6 7 6 5 6 6 5 6 6 6 5 5 3 5 4 4 4 4 4 4 3 2 3 3 2 3 3 3 3 2 3 3 1 0 0 2 2
5 3 8 4 1 7 4 7 6 1 3 0 8 12 4 8 2 7 12 10 8 13 13 14 13 12 10 8 5 6 7 6 8 7 11 11 11 10 11 11 8 15 13 13 13 12 11 11 10 10 8 8 7 6 8 6 5 5 4 5 5 5 5 5 5 5 4 5 5 5 5 6 4 4 4 6 4 4 4 4 3 3 2 3 3 3 3 4 3 2 1 1 2 1 1 0 2
6 2 5 5 1 1 1 1 2 4 1 3 8 4 1 3 6 3 11 15 11 13 12 13 12 12 12 10 5 5 6 7 7 9 9 12 12 9 10 9 9 14 14 13 13 11 10 10 11 10 9 8 7 6 7 6 6 5 5 5 5 5 5 5 5 5 4 4 4 5 5 5 4 4 4 4 6 3 5 4 2 3 3 3 3 3 2 2 3 2 1 2 2 1 0 1 1
8 2 7 5 2 2 2 1 1 1 1 2 2 3 3 0 3 5 6 10 9 10 12 12 12 9 9 9 5 3 8 6 8 9 8 12 13 11 9 9 12 14 14 14 12 11 11 10 10 10 9 9 8 7 6 6 6 6 5 5 5 4 5 6 5 5 5 5 3 5 5 4 4 4 5 4 5 4 5 4 3 3 3 3 3 3 3 2 2 2 1 1 1 0 1 1 1
5 5 7 3 4 5 3 5 2 2 2 4 2 3 2 3 2 5 2 8 7 10 11 11 11 8 5 6 6 3 4 7 7 7 7 10 12 11 8 11 12 12 14 12 13 12 11 10 10 10 10 10 9 7 6 6 6 6 6 6 6 4 4 4 6 5 5 6 5 6 6 5 5 4 3 4 4 6 5 5 3 3 3 3 3 2 1 4 3 2 1 1 2 1 0 1 2
3 4 6 6 4 6 6 4 5 4 2 0 3 1 1 1 2 6 3 7 6 5 12 12 10 8 5 4 3 4 2 5 7 7 7 9 11 9 10 10 11 10 11 13 13 12 13 12 11 10 9 9 8 8 7 6 6 5 7 6 5 5 5 5 5 4 7 6 5 5 5 5 6 4 4 4 3 4 6 6 5 4 4 3 3 2 2 2 3 3 3 3 1 1 1 1 2
3 2 2 5 3 3 5 3 1 2 2 1 2 5 3 4 2 1 1 7 5 5 9 12 9 7 7 4 3 3 4 4 9 6 7 10 10 8 11 11 11 9 8 12 14 12 12 13 12 11 9 10 8 9 7 7 6 6 6 7 5 6 6 6 5 5 5 5 4 4 4 4 4 3 4 3 4 4 4 5 5 4 4 4 4 3 3 3 4 3 3 2 2 2 0 1 2
3 2 2 1 3 4 1 4 3 3 1 2 1 2 2 4 3 4 6 9 9 10 8 9 9 8 8 6 5 4 3 2 8 7 7 9 10 8 11 12 11 10 7 11 12 12 12 12 12 11 11 10 10 9 8 6 7 6 6 7 6 6 6 5 6 6 4 5 5 5 4 4 4 3 3 2 5 4 3 4 4 3 5 4 4 5 4 3 3 3 1 4 2 2 2 2 3
5 2 7 0 2 2 5 2 3 6 2 1 2 2 3 3 3 9 9 9 10 9 9 9 9 9 9 8 7 6 3 3 3 7 6 9 9 7 10 11 13 12 9 12 11 11 14 12 12 11 10 9 9 9 9 8 8 7 7 5 5 5 5 5 6 6 6 5 6 6 4 6 6 5 5 3 4 4 4 4 3 3 4 4 4 3 5 3 3 3 2 4 3 3 3 3 3
3 2 3 3 1 1 6 2 2 4 5 3 1 1 2 4 8 2 5 5 10 9 8 7 8 7 7 7 7 3 2 6 3 5 9 8 10 8 10 8 11 11 9 11 10 12 12 11 12 12 12 10 11 9 10 7 7 7 8 7 7 6 5 6 6 5 4 4 5 4 6 5 5 5 5 4 4 4 6 5 4 3 3 4 4 4 4 4 4 4 3 2 2 4 4 3 2
3 6 4 5 3 1 2 1 3 3 5 2 2 2 3 6 1 4 7 5 8 2 8 8 8 9 9 8 8 8 2 8 5 3 5 7 8 8 7 6 9 11 9 13 9 11 11 11 12 12 10 9 10 8 9 8 7 6 9 9 8 7 5 6 7 6 4 5 5 4 5 4 4 5 5 6 5 4 5 5 5 5 4 4 5 5 4 4 4 4 3 3 2 2 3 2 2
Wind_Direction
172 170 178 202 218 269 215 261 46 328 60 27 78 28 252 184 277 70 67 22 56 346 46 91 75 66 77 95 94 66 25 138 161 141 159 152 133 159 171 162 145 135 132 136 147 147 133 130 129 125 120 115 113 113 112 109 110 112 111 112 108 101 100 100 98 100 107 104 107 104 105 105 111 110 108 106 111 114 117 117 114 112 111 108 105 103 101 102 103 103 101 98 95 90 92 91 91
184 182 199 193 224 227 335 292 106 345 49 77 22 69 298 254 136 138 151 160 101 129 116 89 97 100 103 110 100 65 30 14 84 99 79 117 137 153 177 148 144 135 133 140 152 142 140 151 137 122 118 120 120 118 114 111 109 107 106 103 98 100 100 102 105 104 108 111 118 118 114 109 110 113 119 116 115 116 118 113 114 115 114 112 110 108 105 104 107 107 106 105 104 100 95 95 92
186 197 214 176 11 82 230 235 72 357 53 51 331 203 288 12 171 173 161 110 109 106 92 80 72 74 72 70 46 84 81 49 87 79 102 132 137 165 155 148 137 134 141 148 134 136 143 128 116 121 123 124 123 117 113 111 111 108 106 103 101 102 102 100 107 110 116 120 119 119 118 115 113 111 116 119 120 120 117 118 117 117 116 110 107 105 104 104 106 109 110 114 112 106 104 103 100
315 304 16 12 303 217 32 2 81 49 67 61 320 320 235 214 127 119 101 95 93 97 90 83 77 81 91 83 98 87 89 72 81 116 123 151 146 143 148 138 131 136 137 125 128 123 116 110 110 117 121 121 117 111 109 108 109 107 102 99 100 108 113 122 121 110 122 132 127 127 125 123 118 114 114 118 120 120 120 119 119 114 111 106 102 99 101 104 106 103 109 114 115 118 115 114 108
239 223 85 84 311 21 40 33 38 59 87 107 117 271 262 183 120 105 90 94 85 79 83 91 98 93 91 94 99 95 107 103 105 110 128 138 137 143 141 132 137 131 117 118 119 119 115 119 120 121 121 120 113 107 103 103 103 101 103 108 111 115 119 126 122 121 144 147 136 124 123 125 125 121 120 123 124 121 117 117 115 115 111 105 102 102 102 103 105 109 110 107 108 111 114 109 103
177 26 346 81 97 212 40 71 44 69 123 144 226 236 246 126 130 112 119 119 140 125 118 111 101 110 85 80 99 111 141 125 141 133 136 131 142 145 136 140 139 118 117 113 117 115 118 119 118 117 116 109 105 105 106 103 100 99 103 112 120 123 125 145 143 142 158 144 133 125 125 128 129 126 125 127 126 122 118 119 115 112 108 108 107 107 108 106 107 110 107 106 107 108 107 104 99
159 133 359 54 100 113 109 73 58 104 119 176 229 241 194 125 126 118 108 98 79 79 80 103 122 124 107 115 102 93 93 120 135 127 127 133 140 138 133 129 110 114 121 122 122 120 125 122 123 122 118 114 112 113 114 113 109 111 116 122 128 128 146 157 152 155 149 121 124 130 133 132 130 128 126 126 126 123 120 118 116 112 108 108 110 110 112 118 118 116 112 108 106 104 105 102 95
205 88 303 62 7 67 64 48 92 101 199 198 278 272 302 165 76 87 131 137 115 113 126 104 87 88 82 90 105 117 123 103 114 117 128 138 141 134 141 126 121 120 117 116 116 124 125 127 127 125 121 119 120 120 121 121 118 123 131 132 133 134 144 150 150 137 135 122 103 138 135 131 129 128 125 124 123 122 119 117 117 114 111 110 112 116 115 116 123 119 115 111 106 104 106 105 96
351 93 149 21 20 354 57 89 86 47 303 283 281 256 260 51 58 325 97 107 120 102 102 106 113 90 106 109 100 109 103 112 115 126 132 136 133 130 130 117 114 116 119 121 121 119 122 126 124 122 121 117 116 117 117 113 117 121 127 131 131 137 156 149 140 135 137 144 142 136 136 131 131 127 124 121 122 122 120 118 115 113 110 113 116 114 113 126 124 119 114 112 111 110 109 108 103
29 18 25 29 265 31 34 16 70 254 294 297 285 319 37 71 64 289 260 122 115 117 97 91 103 102 114 100 106 109 118 127 133 130 131 120 116 125 119 115 119 123 124 125 124 125 126 122 121 121 119 117 119 119 117 117 120 125 131 135 144 148 143 135 139 134 134 141 137 136 133 132 129 125 122 120 121 120 119 118 115 116 114 110 114 117 127 131 122 116 114 114 113 111 110 109 105
57 35 329 55 333 21 4 312 339 30 315 292 290 328 348 348 100 316 327 119 101 99 103 111 103 114 117 99 86 114 128 138 140 134 126 122 135 137 119 119 121 123 127 129 127 119 114 123 126 123 117 115 115 116 115 122 124 132 137 136 137 133 128 129 136 136 137 137 136 135 136 127 123 121 119 119 119 119 118 116 119 115 112 113 112 119 125 123 119 117 116 114 112 109 107 107 107
93 122 139 113 244 160 271 75 143 321 312 307 296 303 307 353 94 323 346 113 114 117 126 140 112 116 100 112 123 131 132 135 124 115 110 115 103 112 121 124 127 126 126 126 125 122 123 120 122 121 119 117 117 120 118 116 117 120 124 126 131 126 125 134 135 136 132 128 127 133 133 123 118 118 118 116 116 116 118 122 122 123 122 121 125 125 123 123 119 120 116 113 109 108 107 108 109
116 136 98 84 239 254 242 134 82 217 299 258 251 298 14 327 140 180 163 264 132 136 114 105 121 127 120 121 131 131 130 132 126 122 120 121 118 112 98 120 124 125 127 129 129 127 125 123 118 123 123 121 119 115 111 109 104 109 114 123 128 122 127 130 129 122 123 119 123 128 130 120 126 124 116 117 118 121 124 126 129 123 121 121 119 122 123 124 122 118 115 111 109 107 109 111 111
121 177 138 145 165 138 72 328 19 219 253 224 258 287 345 345 62 123 4 283 111 108 117 131 133 126 109 123 129 126 123 134 124 117 121 120 131 128 131 139 125 129 134 135 130 127 124 123 111 90 90 90 93 105 110 110 111 109 107 129 126 122 123 125 121 118 121 124 126 131 129 122 130 123 118 118 121 125 130 130 128 127 122 120 122 126 126 124 122 115 113 112 112 112 114 117 115
109 153 100 154 87 59 137 161 203 211 238 185 241 187 274 356 99 118 130 289 104 129 136 131 122 132 148 141 140 134 136 130 118 126 129 131 129 128 130 121 121 122 126 131 126 122 121 108 93 97 95 86 83 96 107 113 113 114 126 120 113 116 119 123 121 120 125 129 133 137 124 127 127 119 121 122 126 129 132 132 130 127 123 120 118 122 124 123 117 113 112 118 118 119 118 118 110
137 128 122 143 108 129 249 179 193 221 242 176 206 182 46 309 102 125 232 202 140 126 125 125 169 112 140 131 133 134 136 134 135 133 130 129 121 110 112 114 111 112 119 127 123 120 113 101 101 102 105 105 103 96 105 113 118 121 115 111 115 120 124 123 122 123 127 130 130 124 126 129 112 118 122 125 129 130 128 127 129 124 120 119 119 125 123 117 112 112 113 119 128 127 119 108 103
147 139 136 86 122 169 232 178 164 211 166 166 136 154 166 135 135 217 208 0 180 135 144 158 124 136 130 134 133 139 142 135 136 126 112 115 122 119 118 112 112 108 125 127 123 115 117 118 118 115 115 118 120 113 102 117 121 116 111 116 122 123 122 123 125 126 129 129 123 118 109 69 87 92 92 108 118 118 126 128 127 129 130 118 118 92 71 103 116 114 118 126 131 114 96 87 86
179 141 133 170 165 201 215 197 185 273 155 155 153 165 109 136 165 273 28 320 167 146 136 125 137 123 121 120 130 139 133 135 132 119 120 120 126 127 127 120 117 132 130 116 118 121 124 130 133 130 127 133 139 127 109 88 93 95 100 102 102 109 115 111 101 102 116 104 113 100 81 83 83 106 105 113 113 124 129 128 129 131 125 121 115 97 109 112 116 117 125 132 113 97 92 48 0
146 143 151 254 175 225 173 184 177 201 160 135 119 72 127 213 93 216 103 229 141 136 122 141 110 113 119 131 138 132 130 121 120 122 127 131 133 131 127 121 124 128 130 125 122 124 132 136 136 136 140 154 139 123 116 115 105 109 112 121 119 112 113 98 96 100 72 94 98 96 94 90 86 103 113 119 118 125 129 127 129 126 118 107 105 97 98 119 116 89 85 37 83 13 346 331 300
351 62 279 253 214 290 193 129 114 49 128 141 116 155 125 218 72 239 189 99 300 154 134 114 120 126 137 136 133 132 123 122 124 129 132 140 138 135 128 129 132 135 137 137 123 112 118 110 116 122 127 120 108 112 116 122 126 111 116 115 109 100 101 108 88 80 90 105 104 104 109 116 103 94 131 121 109 81 115 124 125 123 117 112 91 50 44 53 37 6 340 307 338 347 318 292 292
258 83 337 313 319 320 19 110 113 126 190 140 138 141 149 206 164 171 218 150 220 129 126 132 133 140 136 139 138 138 132 131 139 141 140 137 131 142 136 131 133 136 137 135 126 131 128 121 119 115 110 113 113 110 114 114 113 107 121 141 130 126 125 103 102 101 100 107 103 108 117 108 108 115 101 102 93 102 78 61 54 53 49 30 27 9 359 348 24 350 340 346 334 307 296 281 291
119 53 42 348 40 53 29 103 118 134 245 169 132 143 201 201 203 177 161 182 215 128 131 131 135 137 140 141 144 140 135 139 144 143 136 138 147 145 126 118 127 128 139 141 139 136 138 141 136 128 118 118 122 129 133 139 117 131 165 161 130 138 126 123 121 123 117 117 124 122 113 118 111 88 86 97 104 118 108 80 71 66 62 55 17 345 330 11 333 356 338 318 288 272 275 277 266
102 68 50 68 68 99 80 82 79 76 62 247 152 189 197 177 159 156 153 137 192 119 128 133 131 135 138 140 142 138 137 144 148 141 143 149 149 144 131 128 130 136 139 137 143 137 137 138 141 135 131 131 131 133 128 117 135 155 179 163 134 141 146 131 126 132 144 162 127 129 127 129 118 102 102 99 107 90 80 76 69 47 58 16 337 340 331 319 308 334 326 296 286 278 265 265 251
86 61 40 76 87 88 105 128 168 121 135 216 181 320 151 159 138 153 134 207 135 123 128 129 132 134 142 143 142 140 144 153 144 147 154 144 145 138 130 133 134 132 139 148 145 138 139 142 146 144 142 140 135 129 123 125 132 143 165 170 146 150 128 125 133 143 150 127 125 129 132 131 137 136 129 130 130 101 89 83 79 75 55 325 348 287 294 308 278 257 265 271 272 268 269 257 258
108 102 252 99 88 100 102 92 72 85 353 3 350 3 151 175 144 127 145 193 129 126 128 133 137 139 142 143 143 144 150 148 141 157 136 133 130 133 124 117 130 137 141 149 148 142 143 144 146 134 131 122 111 120 122 125 135 151 193 209 141 136 115 114 124 128 125 123 118 136 152 148 140 140 147 144 130 128 101 111 118 84 21 307 250 250 259 301 297 292 268 264 264 268 269 265 211
92 135 130 97 96 98 94 73 49 45 26 316 66 67 9 342 164 120 174 149 126 125 129 137 139 143 147 148 147 151 157 140 152 155 138 141 146 127 121 128 138 139 145 147 149 142 145 142 130 127 125 118 117 110 115 127 138 157 208 166 135 120 117 120 130 132 135 130 141 159 192 179 160 160 159 151 155 142 130 135 124 154 186 213 286 293 272 246 271 274 254 247 254 257 253 253 215
124 119 110 97 93 94 61 102 59 15 46 332 87 24 354 327 14 90 129 143 131 128 136 138 144 149 149 147 154 160 156 148 162 135 143 153 140 127 127 139 132 122 136 146 150 147 144 133 127 132 133 131 129 127 133 138 147 161 202 134 107 111 113 113 122 135 139 145 160 174 194 223 170 170 154 148 122 123 131 140 147 117 94 337 320 309 294 277 265 247 239 254 257 252 236 220 192
118 108 83 61 68 66 79 67 83 293 26 355 101 64 356 330 343 178 148 147 129 136 138 143 149 149 148 150 163 169 148 158 146 152 154 136 132 131 141 138 125 133 138 150 152 151 142 137 136 143 143 139 136 133 144 150 157 168 165 120 113 118 117 115 125 129 139 148 162 186 214 181 155 134 104 89 98 110 128 127 87 94 267 290 273 285 300 300 281 293 294 271 263 231 213 245 204
139 121 92 80 89 73 48 99 199 301 19 333 338 85 36 0 225 184 142 139 138 138 145 151 151 153 147 161 164 155 144 155 139 149 133 125 134 137 131 127 126 132 144 143 145 152 149 146 145 148 147 147 150 149 154 155 159 165 149 139 131 128 128 138 140 146 135 143 161 203 200 68 73 104 96 100 107 127 114 126 129 105 290 297 309 306 298 286 298 304 289 256 258 297 330 278 279
102 49 118 110 48 50 275 308 98 93 28 345 42 97 277 242 250 202 143 145 144 141 155 155 153 146 150 161 162 140 144 128 135 131 126 140 142 140 126 124 129 134 130 123 134 148 148 144 145 146 156 160 158 156 154 157 171 160 154 140 133 131 143 148 153 154 122 128 139 116 73 86 95 107 116 108 99 92 101 94 107 125 160 357 349 323 282 312 313 298 279 298 275 250 253 259 250
98 130 78 92 119 145 188 225 161 112 41 322 93 120 222 222 257 199 145 161 152 152 158 154 150 141 152 164 144 136 137 145 140 131 136 163 151 131 123 131 133 132 125 134 148 160 149 152 151 149 162 162 155 152 157 163 172 156 153 144 142 143 150 155 160 141 127 133 122 105 97 97 87 73 74 89 81 61 59 31 11 48 25 9 322 286 325 311 281 270 272 307 324 309 267 258 196
129 97 12 358 114 109 156 226 197 161 170 274 302 99 178 207 208 212 155 172 150 160 156 153 147 145 149 159 131 138 147 169 139 149 146 180 140 115 124 127 131 137 134 147 158 165 154 156 147 152 163 151 151 153 159 162 167 160 153 153 149 151 154 160 160 145 137 137 133 119 101 90 68 59 46 52 64 63 53 344 0 40 31 358 312 316 323 282 270 265 274 289 331 329 338 297 167
183 122 143 119 23 215 27 264 233 161 112 205 107 157 146 210 204 217 177 157 163 160 153 157 147 146 145 161 142 142 160 167 149 146 161 177 117 122 128 136 139 141 136 150 151 143 154 135 141 150 158 155 157 163 153 152 151 142 151 152 153 158 162 166 162 148 142 145 137 120 103 86 71 47 15 19 54 97 164 168 74 68 23 335 315 286 254 243 254 279 307 333 50 279 326 324 307
147 109 101 98 162 177 243 60 244 160 147 170 242 165 219 154 179 198 185 160 158 171 152 161 149 144 149 163 149 145 173 153 154 141 175 142 123 133 139 139 141 136 132 134 135 141 139 139 151 150 149 140 134 129 125 120 127 136 149 150 158 162 162 154 150 147 153 151 145 146 145 120 107 116 98 289 327 204 100 60 21 60 109 250 245 250 255 254 249 255 305 298 314 350 322 282 255
149 110 111 45 335 226 220 176 204 178 188 164 210 133 246 164 169 187 188 158 149 169 157 158 146 142 154 173 147 149 177 149 161 156 166 129 129 131 123 128 132 133 136 131 132 133 137 142 139 132 129 124 123 120 117 121 131 141 148 140 136 150 149 144 143 152 150 143 149 155 156 147 141 137 79 15 343 345 10 47 20 276 208 229 285 264 259 257 284 315 254 305 318 254 248 297 274
124 131 147 147 179 240 227 247 156 185 179 184 183 170 184 206 167 187 172 146 156 185 168 147 148 149 163 170 142 156 186 155 163 150 140 132 122 118 123 129 131 132 132 128 129 130 121 121 126 126 127 130 129 123 127 138 127 139 150 121 124 135 141 147 155 163 141 133 143 143 143 135 123 96 51 2 317 281 249 183 222 299 315 308 264 256 264 299 257 261 299 292 326 331 307 290 231
126 147 151 156 174 202 229 237 207 194 183 198 182 154 173 195 148 40 352 197 169 195 175 160 156 158 169 168 148 170 186 154 149 148 143 137 122 124 129 130 132 132 134 126 128 134 138 135 130 131 136 136 135 134 147 148 142 143 125 134 141 143 138 140 149 140 133 138 151 147 137 141 138 152 169 171 178 163 191 178 169 175 199 223 226 213 211 233 299 269 314 355 324 327 311 264 49
143 147 143 161 156 171 182 206 41 345 338 213 160 153 177 185 116 26 352 19 186 184 183 181 162 168 171 169 152 172 180 139 144 150 144 136 128 130 128 131 140 141 139 132 138 142 143 141 134 134 136 145 148 156 162 152 146 152 149 162 140 133 132 142 146 138 144 146 143 145 149 145 132 134 156 150 188 170 167 164 153 161 184 198 214 213 171 235 10 34 19 350 290 287 270 76 45
156 149 137 125 153 134 231 123 27 38 251 299 356 346 213 181 105 55 33 4 359 25 46 157 161 173 185 151 158 165 157 145 163 156 146 140 134 129 127 133 137 140 139 140 142 141 145 144 142 142 147 152 166 166 154 148 148 157 154 158 133 137 153 158 139 135 129 130 144 144 139 144 144 155 163 170 195 216 167 149 153 157 152 137 51 0 201 317 348 39 27 44 338 310 275 49 52
204 135 147 156 162 153 172 120 144 68 143 173 183 151 308 340 21 44 48 33 355 341 355 6 119 278 204 159 161 163 160 154 168 160 150 145 137 127 132 136 138 139 140 142 143 145 147 144 147 149 152 153 160 163 151 159 163 178 166 150 136 149 170 154 119 118 119 126 138 128 135 149 156 167 173 170 193 203 118 128 137 114 144 154 155 164 343 272 108 33 43 40 45 15 357 337 173
219 167 136 139 165 189 154 155 105 112 28 125 117 34 191 200 222 267 326 17 3 327 316 331 298 260 269 172 158 161 160 162 159 167 151 146 137 134 139 140 144 146 147 151 149 149 151 152 152 155 158 154 155 158 166 166 159 159 127 127 136 122 94 109 113 119 133 140 135 127 147 163 176 179 207 164 159 137 122 120 128 132 116 82 92 104 245 56 99 120 91 63 39 111 4 321 342
241 169 160 166 165 164 92 118 117 143 155 204 155 131 227 201 213 224 204 11 312 265 286 275 251 264 277 185 161 159 155 164 158 173 150 144 135 130 139 145 149 147 152 158 154 151 150 154 152 153 158 149 154 160 155 137 129 138 122 126 135 134 131 130 137 145 144 147 157 155 157 182 181 170 173 172 132 127 137 164 118 130 109 115 142 73 72 65 56 85 85 126 58 13 118 49 4
211 76 132 135 136 143 131 135 125 149 179 192 207 172 200 153 208 210 187 207 235 233 261 261 235 244 242 198 160 165 162 157 164 162 145 144 135 137 144 149 152 153 156 159 155 146 154 155 155 157 160 156 151 145 145 132 130 126 128 132 136 142 144 160 152 145 149 165 157 150 169 177 186 161 176 153 144 148 141 95 87 128 160 180 115 87 74 61 54 119 125 71 31 45 61 67 32
86 127 119 139 147 147 152 152 151 128 72 93 172 141 133 237 223 194 178 194 211 220 239 241 231 222 230 197 169 168 164 155 164 160 149 148 139 145 152 153 160 154 156 156 150 146 156 160 158 157 161 155 148 146 145 146 149 144 131 128 133 140 148 164 158 156 167 163 148 151 165 166 179 185 159 141 140 153 140 154 108 55 132 165 133 107 89 93 333 64 92 169 48 58 78 84 56
122 134 144 153 159 159 152 157 148 140 131 133 188 183 69 255 206 159 169 195 210 216 210 225 223 210 227 201 182 171 162 158 165 162 153 145 143 148 151 160 163 150 152 156 152 149 154 158 152 156 157 152 150 155 153 152 158 160 147 144 140 159 155 168 158 146 162 145 146 150 152 165 178 162 142 154 158 149 161 161 188 159 74 46 93 83 18 353 44 80 25 33 73 39 53 92 90
149 153 158 161 154 155 160 155 145 158 123 172 200 194 162 255 173 154 182 200 214 206 200 209 216 197 207 199 193 183 165 164 172 160 151 143 152 152 158 165 158 153 156 148 147 148 152 154 153 156 158 154 158 159 159 157 162 165 154 151 159 169 157 156 142 143 147 134 141 153 147 152 162 139 150 159 157 155 152 170 178 189 202 122 143 145 175 137 134 102 267 117 89 62 2 17 29
153 155 163 155 156 155 159 143 137 116 34 222 190 185 191 191 199 189 169 210 199 180 185 200 208 202 202 205 192 187 169 170 168 155 153 145 159 158 153 164 163 154 150 142 148 152 153 155 155 157 161 158 160 161 159 161 162 169 164 165 164 156 158 156 148 156 147 134 144 151 151 162 163 170 166 163 172 172 164 184 197 209 168 135 132 148 180 192 153 172 136 71 89 93 32 14 6
216 193 168 102 142 143 125 133 152 122 169 0 159 172 208 194 259 207 218 189 172 179 185 185 195 196 195 202 202 187 185 170 167 155 157 147 158 161 160 159 168 147 144 145 150 153 152 153 158 157 160 160 161 161 161 166 165 161 162 156 154 158 155 157 157 158 156 147 151 153 156 158 177 180 170 167 178 200 172 196 201 169 125 129 115 123 136 99 102 110 115 118 84 348 50 25 33
282 83 83 89 150 172 188 149 224 77 81 274 116 145 253 265 267 219 214 213 184 184 181 181 185 189 191 195 207 179 186 169 162 156 150 157 163 164 166 169 159 140 148 149 153 153 153 155 158 159 167 162 164 163 163 167 165 163 165 154 154 162 149 147 150 147 157 149 150 151 150 168 191 179 175 176 196 200 170 192 191 116 134 110 115 117 117 123 109 74 62 166 163 99 305 255 18
275 207 124 106 95 81 265 241 156 49 162 79 100 104 158 253 269 188 210 207 190 182 177 171 183 190 185 191 195 179 184 161 158 164 156 162 166 169 172 161 146 145 149 153 154 153 157 159 160 165 170 165 163 167 165 164 163 169 162 160 165 157 154 153 150 148 159 160 151 156 158 171 189 185 177 177 201 179 167 182 158 140 158 137 159 142 158 133 135 113 50 87 87 154 61 32 282
236 184 137 152 182 158 193 28 25 124 197 103 66 170 245 117 251 328 270 202 176 176 172 171 172 193 194 182 175 173 180 168 160 173 163 158 166 165 166 152 147 146 153 153 154 154 156 158 161 165 164 167 168 170 165 162 161 168 159 155 162 151 150 155 157 155 157 171 171 159 166 172 181 202 179 198 202 156 166 166 158 153 156 155 147 146 155 161 139 115 81 186 100 304 318 303 303
294 242 109 140 218 131 136 196 108 150 129 105 223 212 226 212 312 321 45 128 145 160 167 162 165 178 195 190 185 195 190 171 167 169 163 154 161 164 147 154 151 149 154 157 152 155 157 158 164 169 167 168 167 171 170 168 167 165 158 154 160 154 149 146 164 163 174 173 183 165 174 177 184 201 210 190 191 156 163 166 171 160 156 145 144 164 158 149 156 132 180 183 227 250 305 276 285
298 343 165 181 193 140 118 109 97 29 34 219 132 48 158 252 331 332 84 91 89 141 164 163 158 153 158 197 196 198 214 177 169 167 158 155 154 159 148 154 153 155 154 156 155 158 156 157 164 168 170 169 167 171 168 168 164 161 163 161 157 158 160 157 164 166 172 171 174 172 172 174 172 185 199 180 167 155 155 160 171 161 156 161 165 193 205 173 169 170 175 187 191 79 117 289 303
254 38 306 165 231 93 119 146 196 130 139 227 243 196 213 149 265 338 165 129 148 157 188 163 157 151 165 195 220 214 212 204 171 169 157 157 160 151 149 154 155 159 148 146 156 155 156 159 162 167 170 173 173 171 169 169 167 165 161 168 168 168 175 165 159 181 167 161 173 161 160 165 175 192 177 167 151 149 157 152 165 166 167 167 179 188 206 171 180 188 188 192 205 166 123 327 300
256 108 326 38 203 173 173 111 149 164 245 196 297 357 252 196 207 164 199 172 175 169 176 170 169 174 185 199 226 248 234 260 177 167 156 164 160 153 156 154 159 165 146 148 149 150 155 159 160 166 172 177 175 171 172 165 168 170 165 173 177 173 179 169 165 175 179 162 174 173 171 174 176 193 192 165 162 156 157 154 169 170 171 179 178 177 197 180 171 199 187 210 205 158 165 232 272
282 358 309 171 147 181 165 173 142 110 187 226 239 112 267 194 198 188 188 179 173 161 160 175 177 181 188 200 209 230 244 248 213 164 157 160 166 153 161 152 160 168 152 157 153 151 159 160 161 167 171 174 177 174 172 170 167 170 170 166 179 178 181 167 162 171 175 175 175 183 182 170 186 181 185 169 158 163 161 175 179 182 171 176 181 184 183 175 167 185 195 199 223 184 189 207 253
187 215 270 294 227 82 121 129 157 141 168 189 147 328 341 352 341 215 190 173 173 170 165 172 178 179 185 195 206 242 306 321 249 174 166 161 165 157 164 155 155 163 147 158 155 155 161 160 164 168 172 178 179 179 171 176 168 176 164 178 180 188 176 164 159 164 170 172 183 176 187 172 168 174 178 175 184 175 172 175 186 187 199 180 183 201 188 165 163 190 218 218 227 196 191 215 235
201 163 207 217 240 71 103 218 166 159 111 178 146 221 234 268 148 48 83 25 50 40 173 172 177 176 180 189 197 202 197 232 260 217 158 165 163 162 158 141 149 162 152 163 158 157 166 165 166 167 171 180 179 182 169 170 183 171 165 179 178 181 175 170 166 175 170 189 190 189 179 169 161 176 172 185 189 188 172 180 183 191 204 193 185 191 195 161 179 179 216 208 185 174 171 209 225